Time,TemperatureF,DewpointF,PressureIn,WindDirection,WindDirectionDegrees,WindSpeedMPH,WindSpeedGustMPH,Humidity,HourlyPrecipIn,Conditions,Clouds,dailyrainin,SoftwareType,DateUTC
2013-03-13 00:02:00,24.0,16.0,-100.00,West,280,6.0,11.0,71,-99.99,,,-99.99,,2013-03-13 05:02:00,
2013-03-13 00:10:00,24.0,15.0,-100.00,WNW,300,9.0,17.0,70,-99.99,,,-99.99,,2013-03-13 05:10:00,
2013-03-13 00:32:00,24.0,15.0,-100.00,WNW,300,9.0,17.0,70,-99.99,,,-99.99,,2013-03-13 05:32:00,
2013-03-13 00:42:00,24.0,15.0,-100.00,WNW,300,9.0,17.0,70,-99.99,,,-99.99,,2013-03-13 05:42:00,
2013-03-13 00:52:00,24.0,15.0,-100.00,WNW,300,9.0,17.0,70,-99.99,,,-99.99,,2013-03-13 05:52:00,
2013-03-13 01:02:00,24.0,15.0,-100.00,WNW,300,9.0,17.0,70,-99.99,,,-99.99,,2013-03-13 06:02:00,
2013-03-13 01:33:00,23.0,16.0,-100.00,NW,310,11.0,16.0,75,-99.99,,,-99.99,,2013-03-13 06:33:00,
2013-03-13 01:42:00,23.0,16.0,-100.00,NW,310,11.0,16.0,75,-99.99,,,-99.99,,2013-03-13 06:42:00,
2013-03-13 01:52:00,23.0,16.0,-100.00,NW,310,11.0,16.0,75,-99.99,,,-99.99,,2013-03-13 06:52:00,
2013-03-13 02:02:00,23.0,16.0,-100.00,NW,310,11.0,16.0,75,-99.99,,,-99.99,,2013-03-13 07:02:00,
2013-03-13 02:33:00,21.0,14.0,-100.00,NNW,335,11.0,17.0,74,-99.99,,,-99.99,,2013-03-13 07:33:00,
2013-03-13 02:43:00,21.0,14.0,-100.00,NNW,335,11.0,17.0,74,-99.99,,,-99.99,,2013-03-13 07:43:00,
2013-03-13 02:53:00,21.0,14.0,-100.00,NNW,335,11.0,17.0,74,-99.99,,,-99.99,,2013-03-13 07:53:00,
2013-03-13 03:03:00,21.0,14.0,-100.00,NNW,335,11.0,17.0,74,-99.99,,,-99.99,,2013-03-13 08:03:00,
2013-03-13 04:10:00,20.0,11.0,-100.00,NW,325,9.0,16.0,68,-99.99,,,-99.99,,2013-03-13 09:10:00,
2013-03-13 04:32:00,20.0,11.0,-100.00,NW,325,9.0,16.0,68,-99.99,,,-99.99,,2013-03-13 09:32:00,
2013-03-13 04:42:00,20.0,11.0,-100.00,NW,325,9.0,16.0,68,-99.99,,,-99.99,,2013-03-13 09:42:00,
2013-03-13 04:52:00,20.0,11.0,-100.00,NW,325,9.0,16.0,68,-99.99,,,-99.99,,2013-03-13 09:52:00,
2013-03-13 05:02:00,20.0,11.0,-100.00,NW,325,9.0,16.0,68,-99.99,,,-99.99,,2013-03-13 10:02:00,
2013-03-13 05:11:00,19.0,10.0,-100.00,NW,310,9.0,14.0,69,-99.99,,,-99.99,,2013-03-13 10:11:00,
2013-03-13 05:32:00,19.0,10.0,-100.00,NW,310,9.0,14.0,69,-99.99,,,-99.99,,2013-03-13 10:32:00,
2013-03-13 05:42:00,19.0,10.0,-100.00,NW,310,9.0,14.0,69,-99.99,,,-99.99,,2013-03-13 10:42:00,
2013-03-13 05:52:00,19.0,10.0,-100.00,NW,310,9.0,14.0,69,-99.99,,,-99.99,,2013-03-13 10:52:00,
2013-03-13 06:02:00,19.0,10.0,-100.00,NW,310,9.0,14.0,69,-99.99,,,-99.99,,2013-03-13 11:02:00,
2013-03-13 06:32:00,18.0,10.0,-100.00,NW,310,9.0,12.0,69,-99.99,,,-99.99,,2013-03-13 11:32:00,
2013-03-13 06:42:00,18.0,10.0,-100.00,NW,310,9.0,12.0,69,-99.99,,,-99.99,,2013-03-13 11:42:00,
2013-03-13 06:52:00,18.0,10.0,-100.00,NW,310,9.0,12.0,69,-99.99,,,-99.99,,2013-03-13 11:52:00,
2013-03-13 07:02:00,18.0,10.0,-100.00,NW,310,9.0,12.0,69,-99.99,,,-99.99,,2013-03-13 12:02:00,
2013-03-13 07:32:00,17.0,9.0,-100.00,WNW,300,6.0,13.0,70,-99.99,,,-99.99,,2013-03-13 12:32:00,
2013-03-13 07:42:00,17.0,9.0,-100.00,WNW,300,6.0,13.0,70,-99.99,,,-99.99,,2013-03-13 12:42:00,
2013-03-13 07:53:00,17.0,9.0,-100.00,WNW,300,6.0,13.0,70,-99.99,,,-99.99,,2013-03-13 12:53:00,
2013-03-13 08:02:00,17.0,9.0,-100.00,WNW,300,6.0,13.0,70,-99.99,,,-99.99,,2013-03-13 13:02:00,
2013-03-13 08:33:00,18.0,9.0,-100.00,NW,305,8.0,13.0,69,-99.99,,,-99.99,,2013-03-13 13:33:00,
2013-03-13 08:43:00,18.0,9.0,-100.00,NW,305,8.0,13.0,69,-99.99,,,-99.99,,2013-03-13 13:43:00,
2013-03-13 08:52:00,18.0,9.0,-100.00,NW,305,8.0,13.0,69,-99.99,,,-99.99,,2013-03-13 13:52:00,
2013-03-13 09:02:00,18.0,9.0,-100.00,NW,305,8.0,13.0,69,-99.99,,,-99.99,,2013-03-13 14:02:00,
2013-03-13 09:34:00,20.0,8.0,-100.00,NW,310,12.0,21.0,60,-99.99,,,-99.99,,2013-03-13 14:34:00,
2013-03-13 09:42:00,20.0,8.0,-100.00,NW,310,12.0,21.0,60,-99.99,,,-99.99,,2013-03-13 14:42:00,
2013-03-13 09:53:00,20.0,8.0,-100.00,NW,310,12.0,21.0,60,-99.99,,,-99.99,,2013-03-13 14:53:00,
2013-03-13 10:03:00,20.0,8.0,-100.00,NW,310,12.0,21.0,60,-99.99,,,-99.99,,2013-03-13 15:03:00,
2013-03-13 10:32:00,23.0,6.0,-100.00,NW,310,10.0,22.0,48,-99.99,,,-99.99,,2013-03-13 15:32:00,
2013-03-13 10:43:00,23.0,6.0,-100.00,NW,310,10.0,22.0,48,-99.99,,,-99.99,,2013-03-13 15:43:00,
2013-03-13 10:52:00,23.0,6.0,-100.00,NW,310,10.0,22.0,48,-99.99,,,-99.99,,2013-03-13 15:52:00,
2013-03-13 11:02:00,23.0,6.0,-100.00,NW,310,10.0,22.0,48,-99.99,,,-99.99,,2013-03-13 16:02:00,
2013-03-13 11:33:00,24.0,2.0,-100.00,NNW,330,18.0,28.0,39,-99.99,,,-99.99,,2013-03-13 16:33:00,
2013-03-13 11:42:00,24.0,2.0,-100.00,NNW,330,18.0,28.0,39,-99.99,,,-99.99,,2013-03-13 16:42:00,
2013-03-13 11:52:00,24.0,2.0,-100.00,NNW,330,18.0,28.0,39,-99.99,,,-99.99,,2013-03-13 16:52:00,
2013-03-13 12:02:00,24.0,2.0,-100.00,NNW,330,18.0,28.0,39,-99.99,,,-99.99,,2013-03-13 17:02:00,
2013-03-13 12:33:00,26.0,2.0,-100.00,NW,310,14.0,20.0,35,-99.99,,,-99.99,,2013-03-13 17:33:00,
2013-03-13 12:42:00,26.0,2.0,-100.00,NW,310,14.0,20.0,35,-99.99,,,-99.99,,2013-03-13 17:42:00,
2013-03-13 12:53:00,26.0,2.0,-100.00,NW,310,14.0,20.0,35,-99.99,,,-99.99,,2013-03-13 17:53:00,
2013-03-13 13:02:00,26.0,2.0,-100.00,NW,310,14.0,20.0,35,-99.99,,,-99.99,,2013-03-13 18:02:00,
2013-03-13 13:33:00,29.0,1.0,-100.00,NW,310,11.0,16.0,30,-99.99,,,-99.99,,2013-03-13 18:33:00,
2013-03-13 13:43:00,29.0,1.0,-100.00,NW,310,11.0,16.0,30,-99.99,,,-99.99,,2013-03-13 18:43:00,
2013-03-13 13:52:00,29.0,1.0,-100.00,NW,310,11.0,16.0,30,-99.99,,,-99.99,,2013-03-13 18:52:00,
2013-03-13 14:02:00,29.0,1.0,-100.00,NW,310,11.0,16.0,30,-99.99,,,-99.99,,2013-03-13 19:02:00,
2013-03-13 14:32:00,30.0,1.0,-100.00,WNW,295,9.0,14.0,28,-99.99,,,-99.99,,2013-03-13 19:32:00,
2013-03-13 14:43:00,30.0,1.0,-100.00,WNW,295,9.0,14.0,28,-99.99,,,-99.99,,2013-03-13 19:43:00,
2013-03-13 14:53:00,30.0,1.0,-100.00,WNW,295,9.0,14.0,28,-99.99,,,-99.99,,2013-03-13 19:53:00,
2013-03-13 15:02:00,30.0,1.0,-100.00,WNW,295,9.0,14.0,28,-99.99,,,-99.99,,2013-03-13 20:02:00,
2013-03-13 15:32:00,31.0,1.0,-100.00,WNW,295,9.0,15.0,27,-99.99,,,-99.99,,2013-03-13 20:32:00,
2013-03-13 15:42:00,31.0,1.0,-100.00,WNW,295,9.0,15.0,27,-99.99,,,-99.99,,2013-03-13 20:42:00,
2013-03-13 15:52:00,31.0,1.0,-100.00,WNW,295,9.0,15.0,27,-99.99,,,-99.99,,2013-03-13 20:52:00,
2013-03-13 16:02:00,31.0,1.0,-100.00,WNW,295,9.0,15.0,27,-99.99,,,-99.99,,2013-03-13 21:02:00,
2013-03-13 16:34:00,32.0,1.0,-100.00,WNW,290,9.0,15.0,26,-99.99,,,-99.99,,2013-03-13 21:34:00,
2013-03-13 16:42:00,32.0,1.0,-100.00,WNW,290,9.0,15.0,26,-99.99,,,-99.99,,2013-03-13 21:42:00,
2013-03-13 16:52:00,32.0,1.0,-100.00,WNW,290,9.0,15.0,26,-99.99,,,-99.99,,2013-03-13 21:52:00,
2013-03-13 17:02:00,32.0,1.0,-100.00,WNW,290,9.0,15.0,26,-99.99,,,-99.99,,2013-03-13 22:02:00,
2013-03-13 17:32:00,32.0,0.0,-100.00,NW,305,9.0,14.0,25,-99.99,,,-99.99,,2013-03-13 22:32:00,
2013-03-13 17:42:00,32.0,0.0,-100.00,NW,305,9.0,14.0,25,-99.99,,,-99.99,,2013-03-13 22:42:00,
2013-03-13 17:52:00,32.0,0.0,-100.00,NW,305,9.0,14.0,25,-99.99,,,-99.99,,2013-03-13 22:52:00,
2013-03-13 18:02:00,32.0,0.0,-100.00,NW,305,9.0,14.0,25,-99.99,,,-99.99,,2013-03-13 23:02:00,
2013-03-13 18:32:00,31.0,-1.0,-100.00,WNW,290,5.0,12.0,25,-99.99,,,-99.99,,2013-03-13 23:32:00,
2013-03-13 18:43:00,31.0,-1.0,-100.00,WNW,290,5.0,12.0,25,-99.99,,,-99.99,,2013-03-13 23:43:00,
2013-03-13 18:52:00,31.0,-1.0,-100.00,WNW,290,5.0,12.0,25,-99.99,,,-99.99,,2013-03-13 23:52:00,
2013-03-13 19:02:00,31.0,-1.0,-100.00,WNW,290,5.0,12.0,25,-99.99,,,-99.99,,2013-03-14 00:02:00,
2013-03-13 19:33:00,27.0,-1.0,-100.00,West,265,3.0,7.0,29,-99.99,,,-99.99,,2013-03-14 00:33:00,
2013-03-13 19:42:00,27.0,-1.0,-100.00,West,265,3.0,7.0,29,-99.99,,,-99.99,,2013-03-14 00:42:00,
2013-03-13 19:52:00,27.0,-1.0,-100.00,West,265,3.0,7.0,29,-99.99,,,-99.99,,2013-03-14 00:52:00,
2013-03-13 20:02:00,27.0,-1.0,-100.00,West,265,3.0,7.0,29,-99.99,,,-99.99,,2013-03-14 01:02:00,
2013-03-13 20:32:00,24.0,1.0,-100.00,West,275,2.0,5.0,36,-99.99,,,-99.99,,2013-03-14 01:32:00,
2013-03-13 20:42:00,24.0,1.0,-100.00,West,275,2.0,5.0,36,-99.99,,,-99.99,,2013-03-14 01:42:00,
2013-03-13 20:53:00,24.0,1.0,-100.00,West,275,2.0,5.0,36,-99.99,,,-99.99,,2013-03-14 01:53:00,
2013-03-13 21:02:00,24.0,1.0,-100.00,West,275,2.0,5.0,36,-99.99,,,-99.99,,2013-03-14 02:02:00,
2013-03-13 21:33:00,23.0,5.0,-100.00,WSW,255,4.0,7.0,46,-99.99,,,-99.99,,2013-03-14 02:33:00,
2013-03-13 21:42:00,23.0,5.0,-100.00,WSW,255,4.0,7.0,46,-99.99,,,-99.99,,2013-03-14 02:42:00,
2013-03-13 21:52:00,23.0,5.0,-100.00,WSW,255,4.0,7.0,46,-99.99,,,-99.99,,2013-03-14 02:52:00,
2013-03-13 22:02:00,23.0,5.0,-100.00,WSW,255,4.0,7.0,46,-99.99,,,-99.99,,2013-03-14 03:02:00,
2013-03-13 22:33:00,23.0,5.0,-100.00,WNW,285,4.0,6.0,46,-99.99,,,-99.99,,2013-03-14 03:33:00,
2013-03-13 22:42:00,23.0,5.0,-100.00,WNW,285,4.0,6.0,46,-99.99,,,-99.99,,2013-03-14 03:42:00,
2013-03-13 22:53:00,23.0,5.0,-100.00,WNW,285,4.0,6.0,46,-99.99,,,-99.99,,2013-03-14 03:53:00,
2013-03-13 23:33:00,21.0,5.0,-100.00,West,275,6.0,10.0,49,-99.99,,,-99.99,,2013-03-14 04:33:00,
2013-03-13 23:42:00,21.0,5.0,-100.00,West,275,6.0,10.0,49,-99.99,,,-99.99,,2013-03-14 04:42:00,
2013-03-13 23:53:00,21.0,5.0,-100.00,West,275,6.0,10.0,49,-99.99,,,-99.99,,2013-03-14 04:53:00,